• In Austria
  • List of Countries
  • For 7 days
  • Water Temperature
  • Satellite Maps
  • Weather Map
  • News
  • Weather Widgets
  • user-avatar
    Login

    Hourly Weather Satif

    Today, 19 April, Thursday

    Time Temperature Precipitation Wind Pressure Humidity
    00:00 +9°C° 0 mm 1 mps 675 mmHg 82%
    01:00 +9°C° 0 mm 1 mps 675 mmHg 82%
    02:00 +9°C° 0 mm 1 mps 674 mmHg 83%
    03:00 +8°C° 0 mm 1 mps 674 mmHg 83%
    04:00 +9°C° 0 mm 1 mps 674 mmHg 81%
    05:00 +9°C° 0 mm 1 mps 674 mmHg 80%
    06:00 +11°C° 0 mm 1 mps 675 mmHg 72%
    07:00 +12°C° 0 mm 1 mps 675 mmHg 66%
    08:00 +13°C° 0 mm 1 mps 675 mmHg 60%
    09:00 +15°C° 0 mm 1 mps 676 mmHg 54%
    10:00 +15°C° 0.3 mm 1 mps 676 mmHg 52%
    11:00 +16°C° 0.3 mm 1 mps 676 mmHg 49%
    12:00 +17°C° 0.3 mm 2 mps 676 mmHg 47%
    13:00 +17°C° 0.7 mm 2 mps 676 mmHg 48%
    14:00 +17°C° 0.7 mm 2 mps 675 mmHg 49%
    15:00 +17°C° 0.7 mm 2 mps 675 mmHg 51%
    16:00 +16°C° 1 mm 2 mps 675 mmHg 56%
    17:00 +15°C° 1 mm 2 mps 674 mmHg 62%
    18:00 +14°C° 1 mm 2 mps 674 mmHg 68%
    19:00 +13°C° 0.1 mm 2 mps 674 mmHg 71%
    20:00 +13°C° 0.1 mm 2 mps 674 mmHg 74%
    21:00 +12°C° 0.1 mm 1 mps 674 mmHg 76%
    22:00 +12°C° 0 mm 1 mps 674 mmHg 77%
    23:00 +11°C° 0 mm 1 mps 674 mmHg 77%

    Tomorrow, 20 April, Friday

    Time Temperature Precipitation Wind Pressure Humidity
    00:00 +11°C° 0 mm 1 mps 674 mmHg 78%
    01:00 +11°C° 0 mm 1 mps 674 mmHg 78%
    02:00 +10°C° 0 mm 1 mps 673 mmHg 77%
    03:00 +10°C° 0 mm 1 mps 673 mmHg 77%
    04:00 +11°C° 0 mm 1 mps 673 mmHg 76%
    05:00 +11°C° 0 mm 1 mps 674 mmHg 74%
    06:00 +12°C° 0 mm 1 mps 674 mmHg 72%
    07:00 +14°C° 0.1 mm 2 mps 674 mmHg 65%
    08:00 +15°C° 0.1 mm 2 mps 675 mmHg 58%
    09:00 +17°C° 0.1 mm 2 mps 675 mmHg 51%
    10:00 +18°C° 0.2 mm 3 mps 676 mmHg 49%
    11:00 +18°C° 0.2 mm 3 mps 676 mmHg 46%
    12:00 +19°C° 0.2 mm 3 mps 676 mmHg 43%
    13:00 +19°C° 0.4 mm 3 mps 675 mmHg 44%
    14:00 +19°C° 0.4 mm 3 mps 675 mmHg 45%
    15:00 +19°C° 0.4 mm 3 mps 675 mmHg 45%
    16:00 +18°C° 0.3 mm 2 mps 674 mmHg 49%
    17:00 +18°C° 0.3 mm 2 mps 674 mmHg 53%
    18:00 +17°C° 0.3 mm 2 mps 674 mmHg 57%
    19:00 +16°C° 0 mm 2 mps 674 mmHg 60%
    20:00 +15°C° 0 mm 2 mps 674 mmHg 63%
    21:00 +14°C° 0 mm 2 mps 674 mmHg 66%
    22:00 +14°C° 0.1 mm 2 mps 674 mmHg 67%
    23:00 +13°C° 0.1 mm 2 mps 674 mmHg 67%

    Day after tomorrow, 21 April, Saturday

    Time Temperature Precipitation Wind Pressure Humidity
    00:00 +13°C° 0.1 mm 2 mps 674 mmHg 68%
    01:00 +13°C° 0 mm 2 mps 673 mmHg 68%
    02:00 +13°C° 0 mm 2 mps 673 mmHg 67%
    03:00 +12°C° 0 mm 2 mps 673 mmHg 67%
    04:00 +13°C° 0 mm 2 mps 673 mmHg 66%
    05:00 +13°C° 0 mm 2 mps 673 mmHg 65%
    06:00 +14°C° 0 mm 2 mps 674 mmHg 64%
    07:00 +16°C° 0 mm 3 mps 674 mmHg 57%
    08:00 +18°C° 0 mm 3 mps 675 mmHg 50%
    09:00 +20°C° 0 mm 4 mps 676 mmHg 43%
    10:00 +21°C° 0 mm 4 mps 676 mmHg 40%
    11:00 +22°C° 0 mm 4 mps 676 mmHg 38%
    12:00 +23°C° 0 mm 4 mps 676 mmHg 36%
    13:00 +23°C° 0 mm 4 mps 675 mmHg 36%
    14:00 +23°C° 0 mm 4 mps 675 mmHg 36%
    15:00 +23°C° 0 mm 4 mps 675 mmHg 37%
    16:00 +22°C° 0 mm 3 mps 675 mmHg 42%
    17:00 +21°C° 0 mm 2 mps 674 mmHg 48%
    18:00 +19°C° 0 mm 2 mps 674 mmHg 53%
    19:00 +19°C° 0 mm 1 mps 674 mmHg 56%
    20:00 +18°C° 0 mm 1 mps 675 mmHg 59%
    21:00 +16°C° 0 mm 1 mps 675 mmHg 62%
    22:00 +16°C° 0 mm 1 mps 675 mmHg 60%
    23:00 +16°C° 0 mm 2 mps 675 mmHg 58%

    22 April, Sunday

    Time Temperature Precipitation Wind Pressure Humidity
    00:00 +16°C° 0 mm 2 mps 674 mmHg 57%
    01:00 +15°C° 0 mm 2 mps 674 mmHg 56%
    02:00 +15°C° 0 mm 2 mps 674 mmHg 55%
    03:00 +15°C° 0 mm 2 mps 674 mmHg 54%
    04:00 +15°C° 0 mm 2 mps 674 mmHg 54%
    05:00 +15°C° 0 mm 2 mps 674 mmHg 54%
    06:00 +16°C° 0 mm 2 mps 674 mmHg 55%
    07:00 +18°C° 0 mm 3 mps 675 mmHg 48%
    08:00 +20°C° 0 mm 3 mps 676 mmHg 42%
    09:00 +24°C° 0 mm 3 mps 676 mmHg 35%
    10:00 +25°C° 0 mm 3 mps 676 mmHg 33%
    11:00 +26°C° 0 mm 3 mps 677 mmHg 31%
    12:00 +27°C° 0 mm 3 mps 677 mmHg 29%
    13:00 +27°C° 0 mm 3 mps 676 mmHg 29%
    14:00 +27°C° 0 mm 3 mps 676 mmHg 29%
    15:00 +27°C° 0 mm 3 mps 676 mmHg 29%
    16:00 +26°C° 0 mm 2 mps 676 mmHg 36%
    17:00 +24°C° 0 mm 2 mps 675 mmHg 42%
    18:00 +23°C° 0 mm 1 mps 675 mmHg 49%
    19:00 +22°C° 0 mm 1 mps 675 mmHg 51%
    20:00 +21°C° 0 mm 1 mps 675 mmHg 54%
    21:00 +20°C° 0 mm 1 mps 675 mmHg 56%
    22:00 +19°C° 0 mm 1 mps 675 mmHg 55%
    23:00 +19°C° 0 mm 1 mps 675 mmHg 55%

    23 April, Monday

    Time Temperature Precipitation Wind Pressure Humidity
    00:00 +19°C° 0 mm 1 mps 675 mmHg 54%
    01:00 +18°C° 0 mm 1 mps 675 mmHg 52%
    02:00 +18°C° 0 mm 1 mps 674 mmHg 51%
    03:00 +17°C° 0 mm 2 mps 674 mmHg 50%
    04:00 +17°C° 0 mm 2 mps 674 mmHg 48%
    05:00 +18°C° 0 mm 2 mps 674 mmHg 47%
    06:00 +18°C° 0 mm 2 mps 675 mmHg 45%
    07:00 +21°C° 0 mm 2 mps 676 mmHg 39%
    08:00 +24°C° 0 mm 2 mps 676 mmHg 33%
    09:00 +26°C° 0 mm 3 mps 677 mmHg 28%
    10:00 +27°C° 0 mm 3 mps 677 mmHg 26%
    11:00 +28°C° 0 mm 3 mps 677 mmHg 24%
    12:00 +28°C° 0 mm 3 mps 677 mmHg 23%
    13:00 +28°C° 0 mm 3 mps 677 mmHg 23%
    14:00 +29°C° 0 mm 3 mps 676 mmHg 23%
    15:00 +29°C° 0 mm 3 mps 676 mmHg 23%
    16:00 +27°C° 0 mm 3 mps 676 mmHg 28%
    17:00 +26°C° 0 mm 2 mps 675 mmHg 32%
    18:00 +25°C° 0 mm 2 mps 675 mmHg 37%
    19:00 +23°C° 0 mm 1 mps 675 mmHg 40%
    20:00 +22°C° 0 mm 1 mps 675 mmHg 42%
    21:00 +21°C° 0 mm 1 mps 675 mmHg 45%
    22:00 +21°C° 0 mm 1 mps 675 mmHg 44%
    23:00 +19°C° 0 mm 2 mps 675 mmHg 43%

    24 April, Tuesday

    Time Temperature Precipitation Wind Pressure Humidity
    00:00 +19°C° 0 mm 2 mps 674 mmHg 43%
    01:00 +19°C° 0 mm 2 mps 674 mmHg 42%
    02:00 +18°C° 0 mm 2 mps 674 mmHg 41%
    03:00 +18°C° 0 mm 2 mps 673 mmHg 41%
    04:00 +18°C° 0 mm 2 mps 674 mmHg 40%
    05:00 +19°C° 0 mm 2 mps 674 mmHg 40%
    06:00 +19°C° 0 mm 2 mps 674 mmHg 40%
    07:00 +21°C° 0 mm 3 mps 675 mmHg 35%
    08:00 +25°C° 0 mm 4 mps 676 mmHg 31%
    09:00 +27°C° 0 mm 4 mps 676 mmHg 26%
    10:00 +28°C° 0 mm 5 mps 676 mmHg 25%
    11:00 +28°C° 0 mm 6 mps 676 mmHg 23%
    12:00 +29°C° 0 mm 7 mps 676 mmHg 21%
    13:00 +29°C° 0 mm 6 mps 676 mmHg 21%
    14:00 +29°C° 0 mm 6 mps 676 mmHg 21%
    15:00 +29°C° 0 mm 6 mps 675 mmHg 21%
    16:00 +28°C° 0 mm 5 mps 675 mmHg 24%
    17:00 +26°C° 0 mm 4 mps 674 mmHg 27%
    18:00 +25°C° 0 mm 4 mps 674 mmHg 30%
    19:00 +23°C° 0 mm 4 mps 674 mmHg 30%
    20:00 +22°C° 0 mm 4 mps 674 mmHg 30%
    21:00 +21°C° 0 mm 4 mps 674 mmHg 29%
    22:00 +21°C° 0 mm 4 mps 674 mmHg 30%
    23:00 +20°C° 0 mm 4 mps 674 mmHg 30%
    Show more